SCP
0 1 0 0 0 0 0 0 0 0 0 0 0 0 0 0 0 0 0 0 0 0 0 0 0 0 0 0 0 0 0 0 0 0 0 0 0 0 0 0 0 0 0
1 1 0 0 0 0 0 0 0 0 0 0 0 0 0 0 0 0 0 0 0 0 0 0 1 1 1 0 0 0 0 0 1 0 0 0 0 0 0 0 0 0 0
1 1 1 0 0 0 0 0 0 0 0 0 0 0 0 0 0 0 0 0 0 0 0 1 1 1 1 1 1 1 1 1 1 1 1 0 0 0 0 0 0 0 0
2 1 1 1 1 0 0 0 0 0 0 0 0 0 0 0 0 0 0 1 0 0 0 0 1 1 1 1 1 1 2 1 1 1 0 1 1 1 1 1 1 1 0
2 2 1 2 1 1 0 0 0 0 0 0 0 0 0 0 0 0 0 0 0 0 0 0 1 1 1 2 2 2 2 2 1 1 1 1 1 1 1 1 1 1 0
2 2 2 1 1 1 1 0 0 0 0 0 0 0 0 0 1 1 0 1 0 0 1 1 1 1 1 1 1 2 3 3 2 1 1 1 1 1 1 0 1 1 0
1 2 2 2 2 2 1 1 1 1 0 0 0 0 0 0 0 0 1 1 1 1 1 1 1 1 1 1 1 2 3 3 3 2 1 2 2 1 1 0 0 0 0
1 1 2 2 2 2 1 1 1 1 1 0 1 0 0 0 0 1 1 1 1 1 1 1 1 1 1 1 1 1 2 2 2 2 2 2 2 1 0 0 0 0 0
2 1 2 2 2 3 3 2 2 1 1 1 1 1 1 0 0 1 2 2 2 2 1 1 1 2 1 1 1 1 1 1 1 2 2 2 1 0 0 0 0 0 0
0 1 2 2 2 3 3 3 2 2 1 1 1 1 0 0 1 1 3 2 2 1 1 1 1 1 1 1 1 1 0 0 1 1 1 0 0 0 0 0 0 0 0
0 0 1 2 2 2 2 2 3 2 2 2 1 1 1 2 2 1 2 3 2 2 2 1 1 1 1 0 0 0 0 0 0 0 0 0 0 0 0 0 0 0 0
0 0 1 1 2 2 2 2 3 2 2 2 1 1 1 1 2 2 1 2 2 1 1 1 1 0 0 0 0 0 0 0 0 0 0 0 -0 0 0 0 0 0 0
-0 -0 0 1 2 2 3 3 2 2 2 2 1 1 1 1 1 2 2 1 1 0 0 0 0 0 0 0 0 0 0 0 0 0 0 0 -0 0 0 0 -0 0 -0
0 -0 0 0 1 2 2 2 2 2 1 1 1 1 1 1 1 1 2 1 0 0 0 0 0 0 0 0 0 0 0 0 0 0 0 0 0 0 0 -0 0 0 0
0 0 0 0 1 1 1 1 1 1 1 0 0 0 0 0 1 1 2 1 1 0 0 0 0 0 0 0 0 0 0 0 0 0 0 0 0 0 0 0 0 0 0
0 0 -0 0 0 0 1 1 1 1 1 0 0 0 0 0 -0 0 0 1 0 0 0 0 0 0 0 0 0 0 0 0 0 0 0 0 0 0 0 0 0 0 0
0 0 0 -0 0 0 0 0 0 0 0 0 0 0 0 0 0 0 0 0 0 0 0 0 0 0 0 0 0 0 0 0 0 0 0 0 0 0 0 0 0 0 0
0 0 0 0 -0 0 0 0 0 0 0 0 0 0 0 0 0 0 0 0 0 0 0 0 0 0 0 0 0 0 0 0 0 0 0 0 0 0 0 0 0 0 0
0 0 0 0 -0 0 0 0 0 0 0 0 0 0 0 0 0 -0 0 0 0 0 1 1 0 0 0 0 0 0 0 0 0 0 0 0 0 0 0 0 0 0 0
0 0 0 0 0 -0 0 0 0 0 0 0 0 0 0 0 0 0 0 0 0 0 0 0 0 0 0 0 0 0 0 0 0 0 0 0 0 0 0 0 0 0 0
0 0 0 0 0 0 0 0 0 0 0 0 0 -0 -0 -0 -0 -0 0 0 0 0 0 0 0 0 0 0 0 0 0 0 0 0 0 0 0 0 0 0 0 0 0
0 0 0 0 0 0 -0 0 0 -0 -0 -0 -0 -0 -1 -0 0 0 0 0 0 0 0 0 0 0 0 0 0 0 0 0 0 0 0 0 0 0 0 0 0 0 0
0 0 0 0 0 0 -0 -0 -0 -0 -0 -0 -0 -0 -0 -0 0 0 0 0 0 0 0 0 0 0 0 0 0 0 0 0 0 0 0 0 0 0 0 0 0 0 0
0 0 0 0 0 0 0 -0 -0 -0 -0 -0 -0 0 0 0 0 0 0 0 0 0 0 0 0 0 0 0 0 0 0 0 0 0 0 0 0 0 0 0 0 0 0
0 0 0 0 0 0 -0 0 -0 -0 -0 -0 -0 0 0 0 0 0 0 0 0 0 0 0 0 0 0 0 0 0 0 0 0 0 0 0 0 0 0 0 0 0 0
0 0 0 0 0 0 0 0 -0 -0 -0 -0 0 0 0 0 0 0 0 0 0 0 0 0 0 0 0 0 0 0 0 0 0 0 0 0 0 0 0 0 0 0 0
Wind_Speed_500mb
67 65 65 62 61 59 59 57 56 53 51 49 47 46 45 43 39 36 38 34 31 28 28 27 25 23 20 19 18 23 22 16 16 19 18 20 18 20 23 26 28 31 31
72 72 72 73 71 70 66 66 65 62 60 56 55 53 50 47 45 42 45 45 37 34 35 33 31 29 28 26 26 31 27 24 20 21 22 21 23 24 24 29 32 32 33
74 72 75 81 78 77 70 70 71 73 72 68 66 62 58 53 48 44 46 50 50 48 47 41 38 36 34 33 33 36 32 28 23 22 26 26 28 29 34 31 34 36 35
57 62 78 82 82 82 76 75 74 76 77 74 71 67 62 56 51 48 50 57 53 53 53 48 46 43 39 40 39 39 36 29 25 23 25 27 29 32 38 42 41 39 40
58 63 65 70 76 81 84 80 77 74 75 81 79 75 68 62 58 51 44 53 56 51 51 55 56 53 47 46 44 42 40 33 28 24 20 25 34 39 45 47 48 46 44
69 72 74 75 75 80 87 88 85 80 79 83 81 80 76 65 61 56 50 48 51 50 45 48 50 53 47 53 50 45 40 41 38 33 33 41 45 50 53 53 51 50 50
71 75 83 84 87 84 89 92 92 91 87 87 84 82 81 70 68 65 58 57 57 58 51 52 56 53 54 52 54 55 45 47 43 42 43 49 54 55 55 59 60 54 51
77 80 87 91 94 96 97 94 96 98 101 93 90 85 72 81 75 73 64 68 67 62 58 61 60 61 58 52 53 52 55 55 48 51 53 64 63 60 62 65 64 54 52
55 76 85 90 97 105 105 104 100 105 110 105 96 84 42 53 65 81 77 76 74 70 65 66 68 65 56 50 50 50 52 50 57 65 67 68 62 61 64 56 60 54 52
73 71 72 91 95 100 112 116 116 114 109 102 95 105 104 68 44 53 86 78 77 76 75 71 66 62 55 53 54 48 49 53 67 76 68 62 58 62 66 69 64 57 47
81 86 84 78 93 99 108 112 108 118 118 115 106 90 104 112 85 64 61 84 82 82 81 73 63 60 58 56 52 52 54 65 62 59 58 56 59 68 69 61 58 52 46
74 71 79 82 76 92 109 115 120 121 124 123 118 119 98 101 101 82 64 65 70 71 74 68 65 58 62 56 54 50 53 44 36 40 44 65 67 60 54 48 42 39 44
72 74 73 76 82 81 92 107 113 117 118 119 122 116 122 106 105 102 81 65 63 65 63 61 59 54 57 57 49 55 50 41 36 33 43 55 54 53 50 40 35 36 33
73 69 73 75 79 79 81 87 100 106 104 111 127 104 89 93 98 108 107 93 70 63 62 58 50 47 50 50 50 40 32 25 30 36 44 44 43 48 39 30 29 25 24
80 80 69 75 76 79 78 79 89 98 101 101 84 39 72 44 72 100 104 107 86 62 75 63 47 46 47 31 33 34 34 27 29 35 38 34 44 36 31 28 23 24 22
73 79 84 73 69 63 67 73 79 86 97 103 101 90 68 105 102 110 123 111 92 71 58 51 45 37 31 29 27 24 24 25 31 34 29 32 31 29 26 23 20 20 16
57 71 79 78 67 62 59 65 72 77 87 88 66 51 53 55 80 75 110 101 79 68 58 53 42 33 32 27 22 22 17 21 22 25 26 25 25 23 18 18 19 16 11
54 61 65 72 70 64 65 62 67 78 78 72 56 52 44 46 54 61 92 67 60 53 48 50 41 30 24 24 19 17 18 19 22 26 28 26 22 20 19 15 20 15 15
49 50 53 56 66 67 65 59 59 72 77 73 63 52 53 57 15 66 64 63 48 51 49 42 38 27 20 19 20 22 22 24 22 28 21 23 20 21 19 18 22 23 22
76 55 44 42 54 68 59 53 58 74 78 75 74 66 54 66 66 48 54 53 56 49 48 45 37 31 26 25 20 17 5 12 20 19 20 26 23 23 21 22 23 24 23
92 81 63 42 42 59 63 63 61 62 54 46 59 72 64 52 50 56 63 61 53 53 49 43 39 33 31 27 27 28 26 29 29 33 26 21 26 21 24 23 15 11 10
66 77 73 56 35 50 60 55 41 43 57 58 51 43 44 43 46 56 50 47 48 51 37 37 38 34 30 27 19 14 9 14 14 15 18 22 21 22 16 20 20 14 8
67 69 72 71 47 44 54 55 47 56 62 58 50 53 39 39 46 45 43 40 35 33 34 36 35 29 23 23 23 10 8 12 16 10 20 26 16 14 17 13 11 22 19
57 47 46 49 65 45 47 54 53 65 83 83 78 65 46 44 47 50 41 37 36 32 27 24 22 23 17 21 17 12 12 17 22 15 19 21 15 17 16 19 23 21 17
45 54 55 50 45 53 42 61 69 61 62 68 76 62 58 63 52 43 43 41 36 31 26 21 19 17 18 18 15 19 22 27 25 15 8 18 22 18 21 21 22 32 21
60 52 38 38 58 50 49 47 48 76 72 59 47 65 63 58 53 42 35 31 29 22 17 20 20 17 19 19 27 21 27 26 14 8 3 13 21 23 20 29 36 29 21
Wind_Direction_500mb
231 234 236 235 234 231 231 232 232 231 229 228 228 231 231 234 231 223 220 223 233 232 247 250 251 249 255 254 241 237 237 235 247 259 264 274 275 276 277 275 271 265 264
241 239 240 240 239 235 232 233 233 234 234 231 232 233 234 234 237 236 231 231 231 229 237 243 245 248 254 255 238 231 235 240 251 270 273 273 282 284 278 278 277 271 267
248 249 249 250 248 243 238 235 236 236 236 235 235 234 233 233 233 235 234 234 233 236 238 238 238 239 245 253 243 235 235 248 260 270 280 284 288 290 288 282 277 275 270
256 257 253 254 253 250 250 246 243 242 241 239 239 238 237 233 234 233 231 234 234 236 241 243 245 245 246 247 247 243 242 252 264 274 281 292 298 298 290 287 282 275 272
259 260 260 258 259 253 252 251 249 248 245 242 240 242 240 241 238 239 241 239 242 245 251 253 252 250 250 252 251 250 249 252 258 276 280 312 310 306 300 292 284 279 273
269 264 262 259 256 256 251 247 249 248 250 247 245 243 242 243 240 239 237 243 242 245 253 256 253 253 256 260 258 255 253 252 261 270 276 302 308 305 296 293 288 279 272
270 270 266 260 258 255 254 250 250 248 248 248 251 252 251 247 247 244 241 242 243 245 253 261 264 264 270 267 259 253 252 258 265 276 279 301 303 299 297 292 290 280 271
271 272 272 270 262 258 254 252 247 248 249 246 245 246 249 248 245 234 233 239 245 248 252 256 260 267 263 263 259 252 256 259 270 274 283 292 297 300 291 289 295 282 276
281 276 272 270 270 267 259 255 252 245 247 244 240 234 235 241 248 237 233 233 238 245 250 253 264 263 256 259 250 254 266 267 271 276 281 297 292 293 296 291 291 288 278
281 278 281 272 269 266 265 259 257 252 245 239 241 237 237 246 236 233 235 235 235 237 244 253 261 257 251 252 257 259 261 273 281 280 285 295 289 290 294 291 287 286 277
295 284 275 275 272 265 264 262 256 258 256 248 235 238 239 239 239 244 229 228 231 236 243 249 252 248 253 253 252 265 277 289 288 281 290 298 294 296 299 291 281 279 274
303 291 284 279 277 273 266 265 265 261 260 255 247 239 234 235 229 233 230 227 230 235 241 241 243 245 250 254 261 271 289 287 281 292 293 296 298 302 303 295 280 274 275
308 305 299 289 285 276 273 268 267 267 261 258 253 240 237 234 233 230 233 228 224 228 231 239 244 249 252 252 260 283 272 277 271 286 287 290 294 302 301 293 283 283 269
303 305 302 294 286 282 276 270 268 266 264 263 252 238 239 235 234 230 228 227 225 227 232 243 247 251 256 261 271 265 265 256 280 297 301 306 304 304 304 292 289 274 254
298 303 305 297 293 288 277 276 272 270 269 261 254 284 284 315 271 231 236 236 224 225 234 238 247 255 263 252 261 258 261 278 291 301 307 306 305 300 299 288 280 269 253
292 295 300 303 290 295 286 278 277 273 267 267 268 266 271 274 291 291 237 240 231 230 234 239 244 253 257 252 260 266 275 278 285 294 299 302 301 304 300 282 278 265 249
292 295 300 299 300 285 287 287 281 277 269 266 262 268 259 249 257 260 233 228 226 227 230 239 250 256 256 256 235 264 280 286 283 289 295 310 307 307 316 286 272 255 246
278 285 295 300 304 303 291 283 280 273 266 249 241 245 244 235 248 232 219 219 223 228 234 243 249 248 248 242 248 245 265 275 286 296 288 298 295 310 307 297 281 253 249
284 283 284 303 302 303 299 278 275 268 258 243 240 236 231 214 211 202 216 224 225 231 233 233 236 229 229 222 232 263 268 275 274 293 296 304 291 303 300 277 277 249 255
278 284 285 292 299 303 300 279 274 262 254 253 250 228 203 164 143 198 218 225 224 218 220 223 223 214 216 213 228 252 267 288 288 293 287 284 297 298 286 272 257 249 254
271 274 281 289 293 294 294 290 275 264 250 212 182 166 165 158 168 203 213 210 214 213 215 207 206 206 207 232 236 243 246 262 271 298 300 291 296 285 284 222 205 229 251
277 268 272 274 293 287 296 288 260 239 194 187 192 206 220 205 209 207 210 213 215 204 199 206 215 219 223 245 240 232 235 265 283 286 273 293 292 288 267 210 232 243 268
286 280 267 269 272 276 287 280 241 222 213 230 241 235 233 223 208 189 182 182 187 198 217 224 229 230 202 215 231 228 258 269 276 277 283 298 279 255 269 203 196 196 216
291 278 269 268 259 267 274 261 266 239 239 258 261 244 214 203 191 180 182 194 195 189 192 192 195 205 208 230 244 259 265 277 281 290 284 278 254 241 219 174 186 218 207
284 270 269 256 249 256 263 274 245 253 253 270 255 233 198 180 173 179 180 174 174 179 185 195 210 227 232 243 261 267 277 280 290 317 276 240 266 241 190 200 210 206 199
285 268 277 263 247 240 251 263 236 240 255 267 245 190 175 167 168 164 169 165 159 166 176 206 219 233 249 247 254 267 270 279 294 319 198 259 239 217 173 178 185 184 178
Wind_Speed_850mb
67 65 65 62 61 59 59 57 56 53 51 49 47 46 45 43 39 36 38 34 31 28 28 27 25 23 20 19 18 23 22 16 16 19 18 20 18 20 23 26 28 31 31
72 72 72 73 71 70 66 66 65 62 60 56 55 53 50 47 45 42 45 45 37 34 35 33 31 29 28 26 26 31 27 24 20 21 22 21 23 24 24 29 32 32 33
74 72 75 81 78 77 70 70 71 73 72 68 66 62 58 53 48 44 46 50 50 48 47 41 38 36 34 33 33 36 32 28 23 22 26 26 28 29 34 31 34 36 35
57 62 78 82 82 82 76 75 74 76 77 74 71 67 62 56 51 48 50 57 53 53 53 48 46 43 39 40 39 39 36 29 25 23 25 27 29 32 38 42 41 39 40
58 63 65 70 76 81 84 80 77 74 75 81 79 75 68 62 58 51 44 53 56 51 51 55 56 53 47 46 44 42 40 33 28 24 20 25 34 39 45 47 48 46 44
69 72 74 75 75 80 87 88 85 80 79 83 81 80 76 65 61 56 50 48 51 50 45 48 50 53 47 53 50 45 40 41 38 33 33 41 45 50 53 53 51 50 50
71 75 83 84 87 84 89 92 92 91 87 87 84 82 81 70 68 65 58 57 57 58 51 52 56 53 54 52 54 55 45 47 43 42 43 49 54 55 55 59 60 54 51
77 80 87 91 94 96 97 94 96 98 101 93 90 85 72 81 75 73 64 68 67 62 58 61 60 61 58 52 53 52 55 55 48 51 53 64 63 60 62 65 64 54 52
55 76 85 90 97 105 105 104 100 105 110 105 96 84 42 53 65 81 77 76 74 70 65 66 68 65 56 50 50 50 52 50 57 65 67 68 62 61 64 56 60 54 52
73 71 72 91 95 100 112 116 116 114 109 102 95 105 104 68 44 53 86 78 77 76 75 71 66 62 55 53 54 48 49 53 67 76 68 62 58 62 66 69 64 57 47
81 86 84 78 93 99 108 112 108 118 118 115 106 90 104 112 85 64 61 84 82 82 81 73 63 60 58 56 52 52 54 65 62 59 58 56 59 68 69 61 58 52 46
74 71 79 82 76 92 109 115 120 121 124 123 118 119 98 101 101 82 64 65 70 71 74 68 65 58 62 56 54 50 53 44 36 40 44 65 67 60 54 48 42 39 44
72 74 73 76 82 81 92 107 113 117 118 119 122 116 122 106 105 102 81 65 63 65 63 61 59 54 57 57 49 55 50 41 36 33 43 55 54 53 50 40 35 36 33
73 69 73 75 79 79 81 87 100 106 104 111 127 104 89 93 98 108 107 93 70 63 62 58 50 47 50 50 50 40 32 25 30 36 44 44 43 48 39 30 29 25 24
80 80 69 75 76 79 78 79 89 98 101 101 84 39 72 44 72 100 104 107 86 62 75 63 47 46 47 31 33 34 34 27 29 35 38 34 44 36 31 28 23 24 22
73 79 84 73 69 63 67 73 79 86 97 103 101 90 68 105 102 110 123 111 92 71 58 51 45 37 31 29 27 24 24 25 31 34 29 32 31 29 26 23 20 20 16
57 71 79 78 67 62 59 65 72 77 87 88 66 51 53 55 80 75 110 101 79 68 58 53 42 33 32 27 22 22 17 21 22 25 26 25 25 23 18 18 19 16 11
54 61 65 72 70 64 65 62 67 78 78 72 56 52 44 46 54 61 92 67 60 53 48 50 41 30 24 24 19 17 18 19 22 26 28 26 22 20 19 15 20 15 15
49 50 53 56 66 67 65 59 59 72 77 73 63 52 53 57 15 66 64 63 48 51 49 42 38 27 20 19 20 22 22 24 22 28 21 23 20 21 19 18 22 23 22
76 55 44 42 54 68 59 53 58 74 78 75 74 66 54 66 66 48 54 53 56 49 48 45 37 31 26 25 20 17 5 12 20 19 20 26 23 23 21 22 23 24 23
92 81 63 42 42 59 63 63 61 62 54 46 59 72 64 52 50 56 63 61 53 53 49 43 39 33 31 27 27 28 26 29 29 33 26 21 26 21 24 23 15 11 10
66 77 73 56 35 50 60 55 41 43 57 58 51 43 44 43 46 56 50 47 48 51 37 37 38 34 30 27 19 14 9 14 14 15 18 22 21 22 16 20 20 14 8
67 69 72 71 47 44 54 55 47 56 62 58 50 53 39 39 46 45 43 40 35 33 34 36 35 29 23 23 23 10 8 12 16 10 20 26 16 14 17 13 11 22 19
57 47 46 49 65 45 47 54 53 65 83 83 78 65 46 44 47 50 41 37 36 32 27 24 22 23 17 21 17 12 12 17 22 15 19 21 15 17 16 19 23 21 17
45 54 55 50 45 53 42 61 69 61 62 68 76 62 58 63 52 43 43 41 36 31 26 21 19 17 18 18 15 19 22 27 25 15 8 18 22 18 21 21 22 32 21
60 52 38 38 58 50 49 47 48 76 72 59 47 65 63 58 53 42 35 31 29 22 17 20 20 17 19 19 27 21 27 26 14 8 3 13 21 23 20 29 36 29 21
Wind_Direction_850mb
231 234 236 235 234 231 231 232 232 231 229 228 228 231 231 234 231 223 220 223 233 232 247 250 251 249 255 254 241 237 237 235 247 259 264 274 275 276 277 275 271 265 264
241 239 240 240 239 235 232 233 233 234 234 231 232 233 234 234 237 236 231 231 231 229 237 243 245 248 254 255 238 231 235 240 251 270 273 273 282 284 278 278 277 271 267
248 249 249 250 248 243 238 235 236 236 236 235 235 234 233 233 233 235 234 234 233 236 238 238 238 239 245 253 243 235 235 248 260 270 280 284 288 290 288 282 277 275 270
256 257 253 254 253 250 250 246 243 242 241 239 239 238 237 233 234 233 231 234 234 236 241 243 245 245 246 247 247 243 242 252 264 274 281 292 298 298 290 287 282 275 272
259 260 260 258 259 253 252 251 249 248 245 242 240 242 240 241 238 239 241 239 242 245 251 253 252 250 250 252 251 250 249 252 258 276 280 312 310 306 300 292 284 279 273
269 264 262 259 256 256 251 247 249 248 250 247 245 243 242 243 240 239 237 243 242 245 253 256 253 253 256 260 258 255 253 252 261 270 276 302 308 305 296 293 288 279 272
270 270 266 260 258 255 254 250 250 248 248 248 251 252 251 247 247 244 241 242 243 245 253 261 264 264 270 267 259 253 252 258 265 276 279 301 303 299 297 292 290 280 271
271 272 272 270 262 258 254 252 247 248 249 246 245 246 249 248 245 234 233 239 245 248 252 256 260 267 263 263 259 252 256 259 270 274 283 292 297 300 291 289 295 282 276
281 276 272 270 270 267 259 255 252 245 247 244 240 234 235 241 248 237 233 233 238 245 250 253 264 263 256 259 250 254 266 267 271 276 281 297 292 293 296 291 291 288 278
281 278 281 272 269 266 265 259 257 252 245 239 241 237 237 246 236 233 235 235 235 237 244 253 261 257 251 252 257 259 261 273 281 280 285 295 289 290 294 291 287 286 277
295 284 275 275 272 265 264 262 256 258 256 248 235 238 239 239 239 244 229 228 231 236 243 249 252 248 253 253 252 265 277 289 288 281 290 298 294 296 299 291 281 279 274
303 291 284 279 277 273 266 265 265 261 260 255 247 239 234 235 229 233 230 227 230 235 241 241 243 245 250 254 261 271 289 287 281 292 293 296 298 302 303 295 280 274 275
308 305 299 289 285 276 273 268 267 267 261 258 253 240 237 234 233 230 233 228 224 228 231 239 244 249 252 252 260 283 272 277 271 286 287 290 294 302 301 293 283 283 269
303 305 302 294 286 282 276 270 268 266 264 263 252 238 239 235 234 230 228 227 225 227 232 243 247 251 256 261 271 265 265 256 280 297 301 306 304 304 304 292 289 274 254
298 303 305 297 293 288 277 276 272 270 269 261 254 284 284 315 271 231 236 236 224 225 234 238 247 255 263 252 261 258 261 278 291 301 307 306 305 300 299 288 280 269 253
292 295 300 303 290 295 286 278 277 273 267 267 268 266 271 274 291 291 237 240 231 230 234 239 244 253 257 252 260 266 275 278 285 294 299 302 301 304 300 282 278 265 249
292 295 300 299 300 285 287 287 281 277 269 266 262 268 259 249 257 260 233 228 226 227 230 239 250 256 256 256 235 264 280 286 283 289 295 310 307 307 316 286 272 255 246
278 285 295 300 304 303 291 283 280 273 266 249 241 245 244 235 248 232 219 219 223 228 234 243 249 248 248 242 248 245 265 275 286 296 288 298 295 310 307 297 281 253 249
284 283 284 303 302 303 299 278 275 268 258 243 240 236 231 214 211 202 216 224 225 231 233 233 236 229 229 222 232 263 268 275 274 293 296 304 291 303 300 277 277 249 255
278 284 285 292 299 303 300 279 274 262 254 253 250 228 203 164 143 198 218 225 224 218 220 223 223 214 216 213 228 252 267 288 288 293 287 284 297 298 286 272 257 249 254
271 274 281 289 293 294 294 290 275 264 250 212 182 166 165 158 168 203 213 210 214 213 215 207 206 206 207 232 236 243 246 262 271 298 300 291 296 285 284 222 205 229 251
277 268 272 274 293 287 296 288 260 239 194 187 192 206 220 205 209 207 210 213 215 204 199 206 215 219 223 245 240 232 235 265 283 286 273 293 292 288 267 210 232 243 268
286 280 267 269 272 276 287 280 241 222 213 230 241 235 233 223 208 189 182 182 187 198 217 224 229 230 202 215 231 228 258 269 276 277 283 298 279 255 269 203 196 196 216
291 278 269 268 259 267 274 261 266 239 239 258 261 244 214 203 191 180 182 194 195 189 192 192 195 205 208 230 244 259 265 277 281 290 284 278 254 241 219 174 186 218 207
284 270 269 256 249 256 263 274 245 253 253 270 255 233 198 180 173 179 180 174 174 179 185 195 210 227 232 243 261 267 277 280 290 317 276 240 266 241 190 200 210 206 199
285 268 277 263 247 240 251 263 236 240 255 267 245 190 175 167 168 164 169 165 159 166 176 206 219 233 249 247 254 267 270 279 294 319 198 259 239 217 173 178 185 184 178